カタログに戻る

CZ-6A DEB

運用中SSO
NORAD 55008·DEBRIS·🇨🇳 China

打ち上げ Nov 11, 2022 から Taiyuan Satellite Launch Center

Loading…

次のパス (今後24時間)

TLE

最新Source: Space-Track

元期: Sep 14, 2026, 22:49 UTC

1 55008U 22151UY  26257.95126969  .00000180  00000-0  12183-3 0  9995
2 55008  98.8499 262.1593 0042371  49.6858 310.8003 14.11592705197627

AllMySatでCZ-6A DEBをリアルタイム追跡

Download on the App Store